sat.trackr.live / text

‹ back to catalog

ONEWEB-0577

NORAD 56066 · 2023-043W

PAYLOAD ACTIVE UNKNOWN

§ Identity

Operator
Country
UK
Launch date
2023-03-26
Launch site
SRILR
Launch vehicle
Mass (kg)
RCS (m²)

Purposes: comms

External: N2YO · Heavens-Above · Gunter

§ Orbital elements

Epoch: 2026-09-20T03:21:48.265344Z

Period
109.37 min
Inclination
87.9157°
Eccentricity
0.0002620
Mean motion
13.16594380 rev/d
Perigee alt
1,195.8 km
Apogee alt
1,199.7 km
Semi-major
7,575.9 km
B*
1.3011e-4
RAAN
209.9227°
Arg perigee
84.0586°
Mean anomaly
276.0843°
Rev number
17,148

§ Raw data

ONEWEB-05771 56066U 23043W   26263.14014196  .00000063  00000+0  13011-3 0  99972 56066  87.9157 209.9227 0002620  84.0586 276.0843 13.16594380171485

JSON: /api/v1/satellites/56066 · /tle

For live sub-satellite position, see the globe view (requires WebGL).

§ Visibility from observer

Set your observer location to see the next 7 days of passes ≥ 10°. The values pass through the URL so the page stays shareable.

No JS? Fill the form by hand. The geolocation button needs JavaScript.